Helena, MT

8:49 PM MST on February 25, 2018 (GMT -0700)
Helena Regional

Weather History for KHLN - April, 2014

Change the Weather History Date:

Saturday, April 12, 2014

  Actual Average Record
Temperature  
Mean Temperature 38 °F 44 °F  
Max Temperature 48 °F 57 °F 77 °F (1904)
Min Temperature 27 °F 31 °F 6 °F (1881)
Degree Days  
Heating Degree Days 27 21  
Month to date heating degree days 231 270  
Since 1 July heating degree days 6675 6722  
Cooling Degree Days 0 0  
Month to date cooling degree days 0 0  
Year to date cooling degree days 0 0  
Moisture  
Dew Point 27 °F    
Average Humidity 68    
Maximum Humidity 85    
Minimum Humidity 50    
Precipitation  
Precipitation 0.04 in 0.03 in 0.51 in (1986)
Month to date precipitation 0.04 0.34  
Year to date precipitation 3.37 1.59  
Snow  
Snow T in 0.20 in 7.20 in (1986)
Month to date snowfall T 1.7  
Since 1 July snowfall 41.8 35.2  
Snow Depth 0.00 in    
Sea Level Pressure  
Sea Level Pressure 30.04 in    
Wind  
Wind Speed 12 mph (NNW)    
Max Wind Speed 28 mph    
Max Gust Speed 33 mph    
Visibility 8 miles    
Events Rain , Snow    
T = Trace of Precipitation, MM = Missing Value Source: NWS Daily Summary

Daily Weather History Graph

Daily Weather History Graph

Search for Another Location

Airport or City:

Trip Planner

Search our weather history database for the weather conditions in past years. The results will help you decide how hot, cold, wet, or windy it might be!

Date:

Astronomy

Apr. 12, 2014 Rise Set
Actual Time 6:46 AM MDT 8:12 PM MDT
Civil Twilight 6:14 AM MDT 8:43 PM MDT
Nautical Twilight 5:36 AM MDT 9:21 PM MDT
Astronomical Twilight 4:56 AM MDT 10:02 PM MDT
Moon 5:46 PM MDT (4/12) 5:24 AM MDT (4/12)
Length of Visible Light 14h 28m
Length of Day
13h 25m
Waxing Gibbous, 93% of the Moon is Illuminated
Apr 12
Waxing Gibbous
Apr 15
Full
Apr 22
Last Quarter
Apr 29
New
May 6
First Quarter

Hourly Weather History & Observations

Time (MDT) Temp. Windchill Dew Point Humidity Pressure Visibility Wind Dir Wind Speed Gust Speed Precip Events Conditions
12:53 AM 48.0 °F - 30.0 °F 50% 29.86 in 10.0 mi SW 5.8 mph - N/A   Overcast
1:53 AM 41.0 °F - 30.0 °F 65% 29.88 in 10.0 mi Calm Calm - N/A   Partly Cloudy
2:53 AM 41.0 °F 36.4 °F 28.9 °F 62% 29.89 in 10.0 mi WNW 6.9 mph - N/A   Clear
3:53 AM 39.0 °F 34.0 °F 30.0 °F 70% 29.91 in 10.0 mi West 6.9 mph - N/A   Mostly Cloudy
4:53 AM 39.0 °F 34.8 °F 30.9 °F 73% 29.91 in 10.0 mi WNW 5.8 mph - N/A   Overcast
5:53 AM 37.9 °F 34.4 °F 30.9 °F 76% 29.92 in 10.0 mi West 4.6 mph - N/A   Overcast
6:53 AM 39.0 °F 34.0 °F 33.1 °F 79% 29.92 in 10.0 mi West 6.9 mph - N/A   Overcast
7:53 AM 37.9 °F 34.4 °F 34.0 °F 86% 29.95 in 10.0 mi WNW 4.6 mph - N/A   Overcast
8:21 AM 39.2 °F 35.0 °F 33.8 °F 81% 29.91 in 10.0 mi West 5.8 mph - N/A   Overcast
8:53 AM 39.0 °F 35.7 °F 33.1 °F 79% 29.97 in 10.0 mi NNW 4.6 mph - N/A   Overcast
9:27 AM 37.4 °F 32.1 °F 33.8 °F 87% 29.92 in 10.0 mi NNW 6.9 mph - 0.00 in Rain Light Rain
9:53 AM 37.9 °F 33.5 °F 34.0 °F 86% 30.00 in 7.0 mi NW 5.8 mph - 0.01 in Rain Light Rain
10:01 AM 37.4 °F 32.8 °F 35.6 °F 93% 29.93 in 8.0 mi NW 5.8 mph - 0.00 in Rain Light Rain
10:53 AM 37.9 °F 29.2 °F 34.0 °F 86% 30.01 in 10.0 mi North 15.0 mph 20.7 mph 0.03 in Rain Light Rain
11:11 AM 35.6 °F 25.5 °F 32.0 °F 87% 29.95 in 2.5 mi North 17.3 mph 24.2 mph 0.00 in Snow Light Snow
11:17 AM 35.6 °F 24.2 °F 30.2 °F 81% 29.96 in 1.2 mi NNW 21.9 mph 28.8 mph 0.00 in Snow Light Snow
11:29 AM 33.8 °F 21.9 °F 28.4 °F 81% 29.97 in 0.8 mi NNW 21.9 mph 28.8 mph 0.00 in Snow Light Snow
11:34 AM 33.8 °F 21.0 °F 28.4 °F 81% 29.97 in 1.5 mi NNW 25.3 mph 29.9 mph 0.00 in Snow Light Snow
11:36 AM 33.8 °F 21.6 °F 28.4 °F 81% 29.97 in 3.0 mi NNW 23.0 mph 29.9 mph 0.00 in Snow Light Snow
11:45 AM 33.8 °F 22.8 °F 28.4 °F 81% 29.98 in 3.0 mi NNW 18.4 mph 27.6 mph 0.00 in Snow Light Snow
11:53 AM 34.0 °F 23.8 °F 28.0 °F 79% 30.06 in 3.0 mi NNW 16.1 mph 24.2 mph 0.00 in Snow Light Snow
12:03 PM 33.8 °F 23.2 °F 28.4 °F 81% 29.99 in 2.0 mi NNW 17.3 mph 25.3 mph 0.00 in Snow Light Snow
12:31 PM 32.0 °F 19.8 °F 26.6 °F 80% 29.99 in 4.0 mi North 20.7 mph 28.8 mph 0.00 in Snow Light Snow
12:53 PM 32.0 °F 19.8 °F 27.0 °F 82% 30.09 in 9.0 mi North 20.7 mph 31.1 mph 0.00 in   Overcast
1:53 PM 33.1 °F 20.9 °F 24.1 °F 70% 30.12 in 10.0 mi North 21.9 mph 29.9 mph N/A   Overcast
2:53 PM 35.1 °F 23.5 °F 23.0 °F 61% 30.12 in 10.0 mi North 21.9 mph 28.8 mph N/A   Overcast
3:53 PM 34.0 °F 23.0 °F 21.9 °F 61% 30.13 in 10.0 mi North 18.4 mph 26.5 mph N/A   Overcast
4:53 PM 34.0 °F 22.7 °F 21.0 °F 59% 30.14 in 10.0 mi North 19.6 mph 28.8 mph N/A   Overcast
5:53 PM 32.0 °F 19.5 °F 19.0 °F 59% 30.18 in 10.0 mi North 21.9 mph 27.6 mph N/A   Overcast
6:53 PM 30.9 °F 19.1 °F 21.0 °F 67% 30.21 in 10.0 mi North 18.4 mph - N/A   Overcast
7:53 PM 28.9 °F 17.7 °F 19.9 °F 69% 30.24 in 10.0 mi North 15.0 mph - N/A   Overcast
8:53 PM 28.9 °F 18.6 °F 18.0 °F 64% 30.26 in 10.0 mi NNW 12.7 mph - N/A   Overcast
9:53 PM 28.0 °F 18.1 °F 18.0 °F 66% 30.28 in 10.0 mi NNW 11.5 mph - N/A   Overcast
10:53 PM 27.0 °F 15.6 °F 17.1 °F 66% 30.30 in 10.0 mi NNW 13.8 mph - N/A   Overcast
11:53 PM 27.0 °F 16.1 °F 18.0 °F 69% 30.32 in 10.0 mi NNW 12.7 mph - N/A   Overcast